Tracking 26911 objects as of 8-Feb-2023
HD Live streaming from Space Station
objects crossing your sky now

COSMOS 1481 DEB

Track COSMOS 1481 DEB now!


NORAD ID: 27907
Int'l Code: 1983-070J
Perigee: 3,131.7 km
Apogee: 37,604.1 km
Inclination: 69.5 °
Period: 725.2 minutes
Semi major axis: 26738 km
RCS: 0.1866 m2 (medium)
Launch date: July 8, 1983
Source: Commonwealth of Independent States (former USSR) (CIS)
Launch site: PLESETSK MISSILE AND SPACE COMPLEX (PKMTR)

Note: This is SATELLITE DEBRIS
Your satellite tracking list
Your tracking list is empty




NASA's NSSDC Master Catalog

Two Line Element Set (TLE):
1 27907U 83070J   23031.53860475 -.00000636  00000-0  00000+0 0  9995
2 27907  69.5199 286.8528 6446096 303.5698  10.8347  1.98558095184471
Source of the keplerian elements: AFSPC